Weather History for Logansport, IN

Change the Weather History Date:

Thursday, November 8, 2012

  Actual Average Record
Temperature  
Mean Temperature 35 °F -  
Max Temperature 44 °F 43 °F 46 °F (2013)
Min Temperature 26 °F 28 °F 26 °F (2013)
Degree Days  
Heating Degree Days 30    
Moisture  
Dew Point 33 °F    
Average Humidity 91    
Maximum Humidity 100    
Minimum Humidity 71    
Precipitation  
Precipitation 0.00 in - - ()
Sea Level Pressure  
Sea Level Pressure 30.18 in    
Wind  
Wind Speed 2 mph ()    
Max Wind Speed 8 mph    
Max Gust Speed -    
Visibility 4.2 miles    
Events Fog    
Averages and records for this station are not official NWS values.
T = Trace of Precipitation, MM = Missing Value Source: Averaged Metar Reports

Daily Weather History Graph

Daily Weather History Graph

Search for Another Location

Airport:

Trip Planner

Search our weather history database for the weather conditions in past years. The results will help you decide how hot, cold, wet, or windy it might be!

Date:

Astronomy

Nov. 08, 2012 Rise Set
Actual Time 7:24 AM EST 5:33 PM EST
Civil Twilight 6:55 AM EST 6:02 PM EST
Nautical Twilight 6:22 AM EST 6:35 PM EST
Astronomical Twilight 5:50 AM EST 7:07 PM EST
Moon 1:17 AM EST (11/8) 2:15 PM EST (11/8)
Length of Visible Light 11h 06m
Length of Day
10h 08m
Waning Crescent, 33% of the Moon is Illuminated
Nov 8
Waning Crescent
Nov 13
New
Nov 20
First Quarter
Nov 28
Full
Dec 6
Last Quarter

Hourly Weather History & Observations

Time (EST) Temp. Windchill Dew Point Humidity Pressure Visibility Wind Dir Wind Speed Gust Speed Precip Events Conditions
12:15 AM 33.8 °F 29.6 °F 32.0 °F 93% 30.15 in 7.0 mi NNW 4.6 mph - N/A   Clear
12:35 AM 32.0 °F 27.5 °F 32.0 °F 100% 30.15 in 5.0 mi North 4.6 mph - N/A   Clear
12:55 AM 33.8 °F 30.8 °F 32.0 °F 93% 30.15 in 5.0 mi North 3.5 mph - N/A   Clear
1:15 AM 32.0 °F - 32.0 °F 100% 30.16 in 5.0 mi Calm Calm - N/A   Clear
1:35 AM 32.0 °F - 30.2 °F 93% 30.16 in 4.0 mi Calm Calm - N/A   Clear
1:55 AM 32.0 °F - 30.2 °F 93% 30.16 in 3.0 mi Calm Calm - N/A   Clear
2:15 AM 32.0 °F - 32.0 °F 100% 30.16 in 3.0 mi Calm Calm - N/A   Clear
2:35 AM 32.0 °F - 32.0 °F 100% 30.16 in 2.5 mi Calm Calm - N/A   Clear
2:55 AM 32.0 °F - 32.0 °F 100% 30.17 in 2.5 mi Calm Calm - N/A   Clear
3:15 AM 32.0 °F - 32.0 °F 100% 30.17 in 2.0 mi Calm Calm - N/A   Clear
3:35 AM 32.0 °F - 32.0 °F 100% 30.17 in 1.0 mi Calm Calm - N/A   Mist
3:55 AM 32.0 °F - 30.2 °F 93% 30.17 in 1.2 mi Calm Calm - N/A   Mist
4:15 AM 30.2 °F - 30.2 °F 100% 30.17 in 1.0 mi Calm Calm - N/A   Mist
4:35 AM 30.2 °F - 30.2 °F 100% 30.17 in 1.2 mi Calm Calm - N/A   Mist
4:55 AM 30.2 °F - 28.4 °F 93% 30.17 in 2.5 mi Calm Calm - N/A   Scattered Clouds
5:15 AM 28.4 °F - 28.4 °F 100% 30.18 in 0.2 mi Calm Calm - N/A Fog Light Freezing Fog
5:35 AM 28.4 °F - 28.4 °F 100% 30.19 in 0.2 mi Calm Calm - N/A Fog Light Freezing Fog
5:55 AM 26.6 °F - 26.6 °F 100% 30.20 in 0.2 mi Calm Calm - N/A Fog Light Freezing Fog
6:15 AM 26.6 °F - 26.6 °F 100% 30.20 in 0.2 mi Calm Calm - N/A Fog Light Freezing Fog
6:55 AM 30.2 °F - 28.4 °F 93% 30.21 in 1.5 mi Calm Calm - N/A   Overcast
7:15 AM 30.2 °F - 30.2 °F 100% 30.21 in 2.0 mi Calm Calm - N/A   Overcast
7:55 AM 32.0 °F - 32.0 °F 100% 30.22 in 1.5 mi Calm Calm - N/A   Overcast
8:15 AM 32.0 °F - 32.0 °F 100% 30.23 in 1.5 mi Calm Calm - N/A   Overcast
8:35 AM 32.0 °F - 32.0 °F 100% 30.23 in 1.2 mi Calm Calm - N/A   Overcast
8:55 AM 32.0 °F - 32.0 °F 100% 30.24 in 1.5 mi Calm Calm - N/A   Overcast
9:15 AM 33.8 °F - 32.0 °F 93% 30.24 in 1.2 mi Calm Calm - N/A   Overcast
9:35 AM 33.8 °F - 33.8 °F 100% 30.25 in 1.2 mi Calm Calm - N/A   Overcast
9:55 AM 33.8 °F - 33.8 °F 100% 30.24 in 1.2 mi Calm Calm - N/A   Overcast
10:15 AM 35.6 °F 31.7 °F 33.8 °F 93% 30.24 in 1.5 mi SSW 4.6 mph - N/A   Overcast
10:35 AM 35.6 °F - 35.6 °F 100% 30.24 in 1.8 mi Calm Calm - N/A   Overcast
10:55 AM 35.6 °F - 35.6 °F 100% 30.25 in 1.8 mi Calm Calm - N/A   Overcast
11:35 AM 37.4 °F - 37.4 °F 100% 30.24 in 2.5 mi Calm Calm - N/A   Overcast
11:55 AM 39.2 °F 35.9 °F 37.4 °F 93% 30.23 in 3.0 mi WSW 4.6 mph - N/A   Overcast
12:15 PM 39.2 °F 35.9 °F 37.4 °F 93% 30.23 in 3.0 mi WSW 4.6 mph - N/A   Overcast
12:35 PM 41.0 °F 39.0 °F 37.4 °F 87% 30.22 in 4.0 mi WSW 3.5 mph - N/A   Overcast
12:55 PM 41.0 °F 39.0 °F 37.4 °F 87% 30.22 in 5.0 mi WSW 3.5 mph - N/A   Overcast
1:15 PM 42.8 °F 41.1 °F 37.4 °F 81% 30.21 in 5.0 mi SW 3.5 mph - N/A   Haze
1:35 PM 42.8 °F 40.1 °F 37.4 °F 81% 30.21 in 5.0 mi SSW 4.6 mph - N/A   Overcast
1:55 PM 42.8 °F 39.3 °F 37.4 °F 81% 30.20 in 5.0 mi SW 5.8 mph - N/A   Haze
2:15 PM 42.8 °F 40.1 °F 37.4 °F 81% 30.20 in 5.0 mi West 4.6 mph - N/A   Haze
2:35 PM 44.6 °F 42.2 °F 35.6 °F 71% 30.19 in 5.0 mi SW 4.6 mph - N/A   Haze
2:55 PM 44.6 °F 40.2 °F 35.6 °F 71% 30.18 in 5.0 mi WSW 8.1 mph - N/A   Haze
3:15 PM 44.6 °F 41.4 °F 37.4 °F 76% 30.18 in 7.0 mi SW 5.8 mph - N/A   Overcast
3:35 PM 42.8 °F 40.1 °F 35.6 °F 76% 30.17 in 5.0 mi SW 4.6 mph - N/A   Haze
3:55 PM 42.8 °F 38.6 °F 35.6 °F 76% 30.17 in 5.0 mi SW 6.9 mph - N/A   Haze
4:15 PM 42.8 °F 39.3 °F 35.6 °F 76% 30.17 in 7.0 mi SW 5.8 mph - N/A   Overcast
4:35 PM 42.8 °F 39.3 °F 37.4 °F 81% 30.17 in 5.0 mi SW 5.8 mph - N/A   Haze
4:55 PM 42.8 °F 39.3 °F 35.6 °F 76% 30.17 in 7.0 mi SW 5.8 mph - N/A   Overcast
5:15 PM 42.8 °F 39.3 °F 35.6 °F 76% 30.17 in 7.0 mi SW 5.8 mph - N/A   Overcast
5:35 PM 42.8 °F 40.1 °F 35.6 °F 76% 30.17 in 7.0 mi SW 4.6 mph - N/A   Overcast
5:55 PM 41.0 °F 38.0 °F 35.6 °F 81% 30.16 in 7.0 mi SSW 4.6 mph - N/A   Overcast
6:15 PM 41.0 °F 39.0 °F 35.6 °F 81% 30.17 in 7.0 mi SSW 3.5 mph - N/A   Overcast
6:35 PM 41.0 °F 39.0 °F 35.6 °F 81% 30.16 in 7.0 mi South 3.5 mph - N/A   Overcast
6:55 PM 41.0 °F 37.1 °F 35.6 °F 81% 30.17 in 7.0 mi SSW 5.8 mph - N/A   Overcast
7:15 PM 41.0 °F 37.1 °F 35.6 °F 81% 30.17 in 7.0 mi South 5.8 mph - N/A   Overcast
7:35 PM 41.0 °F 38.0 °F 35.6 °F 81% 30.17 in 7.0 mi SSW 4.6 mph - N/A   Overcast
7:55 PM 39.2 °F 35.9 °F 35.6 °F 87% 30.17 in 7.0 mi SSW 4.6 mph - N/A   Overcast
8:15 PM 39.2 °F 37.0 °F 35.6 °F 87% 30.17 in 7.0 mi South 3.5 mph - N/A   Overcast
8:35 PM 37.4 °F 32.1 °F 33.8 °F 87% 30.16 in 7.0 mi South 6.9 mph - N/A   Mostly Cloudy
8:55 PM 35.6 °F 32.8 °F 32.0 °F 87% 30.16 in 7.0 mi South 3.5 mph - N/A   Scattered Clouds
9:15 PM 35.6 °F 31.7 °F 32.0 °F 87% 30.16 in 7.0 mi South 4.6 mph - N/A   Clear
9:35 PM 35.6 °F 30.7 °F 32.0 °F 87% 30.16 in 7.0 mi South 5.8 mph - N/A   Clear
9:55 PM 33.8 °F 30.8 °F 32.0 °F 93% 30.16 in 7.0 mi South 3.5 mph - N/A   Clear
10:15 PM 33.8 °F 30.8 °F 32.0 °F 93% 30.16 in 7.0 mi SSE 3.5 mph - N/A   Clear
10:35 PM 33.8 °F 29.6 °F 32.0 °F 93% 30.15 in 7.0 mi SSE 4.6 mph - N/A   Clear
10:55 PM 32.0 °F 26.4 °F 32.0 °F 100% 30.15 in 5.0 mi South 5.8 mph - N/A   Clear
11:15 PM 32.0 °F 27.5 °F 32.0 °F 100% 30.15 in 5.0 mi SSE 4.6 mph - N/A   Clear
11:35 PM 32.0 °F 27.5 °F 32.0 °F 100% 30.14 in 5.0 mi South 4.6 mph - N/A   Clear
11:55 PM 32.0 °F 27.5 °F 32.0 °F 100% 30.15 in 5.0 mi SSE 4.6 mph - N/A   Clear